GW1010 Weather Reports


time (UTC)temp
C
wind
direction
speed
KPH
gust
KPH
rain 1hr
cm
rain 24hr
cm
rain mn
cm
humidity
%
barometer
mb
20260506213044 27 341 1.6 8.0 0.00 0.00 0.00 39 1017.8
20260506212529 27 318 3.2 8.0 0.00 0.00 0.00 39 1017.8
20260506212029 27 167 1.6 6.4 0.00 0.00 0.00 41 1017.8
20260506211551 26 217 0.0 8.0 0.00 0.00 0.00 41 1017.9
20260506211028 26 321 1.6 8.0 0.00 0.00 0.00 41 1018.0
20260506210530 26 67 3.2 8.0 0.00 0.00 0.00 40 1018.0
20260506210044 26 293 3.2 6.4 0.00 0.00 0.00 44 1018.0
20260506205528 26 300 1.6 6.4 0.00 0.00 0.00 41 1018.1
20260506205028 26 306 3.2 9.7 0.00 0.00 0.00 43 1018.1
20260506204542 26 0 1.6 9.7 0.00 0.00 0.00 40 1018.1
20260506204031 26 284 1.6 9.7 0.00 0.00 0.00 42 1018.1
20260506203528 26 236 1.6 9.7 0.00 0.00 0.00 41 1018.2
20260506203036 26 326 3.2 9.7 0.00 0.00 0.00 43 1018.3
20260506202529 25 232 1.6 6.4 0.00 0.00 0.00 42 1018.3
20260506202029 26 347 1.6 6.4 0.00 0.00 0.00 41 1018.4
20260506201542 25 233 1.6 9.7 0.00 0.00 0.00 42 1018.4
20260506201028 26 297 1.6 9.7 0.00 0.00 0.00 43 1018.4
20260506200531 25 0 3.2 11.3 0.00 0.00 0.00 42 1018.5
20260506200041 25 310 3.2 11.3 0.00 0.00 0.00 44 1018.5
20260506195531 26 27 1.6 8.0 0.00 0.00 0.00 44 1018.6
20260506195028 26 244 3.2 6.4 0.00 0.00 0.00 44 1018.6
20260506194544 25 273 0.0 6.4 0.00 0.00 0.00 45 1018.6
20260506194029 25 120 0.0 9.7 0.00 0.00 0.00 47 1018.7
20260506193528 25 307 3.2 9.7 0.00 0.00 0.00 47 1018.7
20260506193045 25 0 1.6 6.4 0.00 0.00 0.00 47 1018.7
20260506192528 25 0 0.0 8.0 0.00 0.00 0.00 47 1018.7
20260506192028 24 106 1.6 8.0 0.00 0.00 0.00 49 1018.9
20260506191537 24 302 1.6 6.4 0.00 0.00 0.00 47 1018.9
20260506191029 24 0 0.0 8.0 0.00 0.00 0.00 47 1019.0
20260506190529 24 210 1.6 8.0 0.00 0.00 0.00 50 1019.1
20260506190044 23 0 0.0 6.4 0.00 0.00 0.00 49 1019.2
20260506185530 23 315 1.6 8.0 0.00 0.00 0.00 48 1019.4
20260506185030 23 315 3.2 8.0 0.00 0.00 0.00 50 1019.4
20260506184542 23 0 1.6 4.8 0.00 0.00 0.00 49 1019.4
20260506184029 23 235 0.0 4.8 0.00 0.00 0.00 48 1019.4
20260506183531 23 146 0.0 8.0 0.00 0.00 0.00 52 1019.5
20260506183043 22 61 0.0 8.0 0.00 0.00 0.00 53 1019.6
20260506182528 22 312 0.0 4.8 0.00 0.00 0.00 57 1019.6
20260506182028 22 226 0.0 4.8 0.00 0.00 0.00 55 1019.7
20260506181558 21 0 1.6 4.8 0.00 0.00 0.00 57 1019.8
20260506181029 21 0 1.6 9.7 0.00 0.00 0.00 56 1019.8
20260506180528 21 314 0.0 9.7 0.00 0.00 0.00 57 1019.9
20260506180037 21 105 0.0 4.8 0.00 0.00 0.00 62 1019.9
20260506175530 20 0 0.0 8.0 0.00 0.00 0.00 61 1020.0
20260506175028 20 0 3.2 8.0 0.00 0.00 0.00 62 1020.0
20260506174541 20 311 1.6 8.0 0.00 0.00 0.00 61 1020.0
20260506174029 20 188 0.0 3.2 0.00 0.00 0.00 62 1020.0
20260506173529 20 0 0.0 4.8 0.00 0.00 0.00 64 1020.1
20260506173116 19 0 0.0 4.8 0.00 0.00 0.00 65 1020.1
20260506172529 18 321 1.6 4.8 0.00 0.00 0.00 65 1020.1
20260506172028 18 0 1.6 6.4 0.00 0.00 0.00 67 1020.2
20260506171551 18 232 1.6 6.4 0.00 0.00 0.00 69 1020.2
20260506171027 17 0 1.6 6.4 0.00 0.00 0.00 69 1020.2
20260506170529 17 340 1.6 4.8 0.00 0.00 0.00 69 1020.2
20260506170039 17 343 0.0 4.8 0.00 0.00 0.00 71 1020.3
20260506165528 17 300 0.0 6.4 0.00 0.00 0.00 72 1020.4
20260506165029 16 284 0.0 6.4 0.00 0.00 0.00 73 1020.4
20260506164543 16 335 0.0 8.0 0.00 0.00 0.00 74 1020.4
20260506164030 16 0 0.0 8.0 0.00 0.00 0.00 76 1020.4
20260506163529 15 336 1.6 6.4 0.00 0.00 0.00 77 1020.5
20260506163041 15 316 1.6 4.8 0.00 0.00 0.00 78 1020.6
20260506162528 15 0 1.6 4.8 0.00 0.00 0.00 79 1020.7
20260506162032 14 356 0.0 6.4 0.00 0.00 0.00 80 1020.7
20260506161543 13 0 0.0 6.4 0.00 0.00 0.00 83 1020.7
20260506161031 13 0 0.0 6.4 0.00 0.00 0.00 85 1020.8
20260506160531 13 0 0.0 4.8 0.00 0.00 0.00 86 1020.8
20260506160058 12 0 0.0 4.8 0.00 0.00 0.00 87 1020.8
20260506155558 12 312 1.6 4.8 0.00 0.00 0.00 88 1020.9
20260506155029 11 0 0.0 0.0 0.00 0.00 0.00 90 1020.9
20260506154547 11 0 0.0 0.0 0.00 0.00 0.00 91 1021.0
20260506154029 11 0 0.0 0.0 0.00 0.00 0.00 93 1021.0
20260506153529 10 0 0.0 0.0 0.00 0.00 0.00 94 1021.1
20260506153036 10 0 0.0 1.6 0.00 0.00 0.00 93 1021.1
20260506152527 10 0 0.0 1.6 0.00 0.00 0.00 94 1021.2
20260506152029 10 0 0.0 1.6 0.00 0.00 0.00 94 1021.1
20260506151545 10 0 0.0 0.0 0.00 0.00 0.00 95 1021.1
20260506151028 10 0 0.0 0.0 0.00 0.00 0.00 95 1021.2
20260506150527 9 0 0.0 0.0 0.00 0.00 0.00 95 1021.2
20260506150045 9 0 0.0 0.0 0.00 0.00 0.00 95 1021.2
20260506145529 9 0 0.0 0.0 0.00 0.00 0.00 96 1021.3
20260506145029 8 0 0.0 0.0 0.00 0.00 0.00 96 1021.3
20260506144545 8 0 0.0 0.0 0.00 0.00 0.00 96 1021.3
20260506144031 8 0 0.0 0.0 0.00 0.00 0.00 96 1021.3
20260506143529 8 0 0.0 0.0 0.00 0.00 0.00 96 1021.2
20260506143038 8 0 0.0 0.0 0.00 0.00 0.00 96 1021.2
20260506142528 8 0 0.0 0.0 0.00 0.00 0.00 96 1021.0
20260506142027 7 0 0.0 0.0 0.00 0.00 0.00 96 1021.0
20260506141542 7 0 0.0 0.0 0.00 0.00 0.00 96 1021.0
20260506141029 7 0 0.0 0.0 0.00 0.00 0.00 96 1020.9
20260506140529 7 0 0.0 0.0 0.00 0.00 0.00 96 1020.9
20260506140043 7 0 0.0 0.0 0.00 0.00 0.00 96 1020.9
20260506135528 7 0 0.0 0.0 0.00 0.00 0.00 96 1020.7
20260506135028 7 0 0.0 0.0 0.00 0.00 0.00 96 1020.6
20260506134548 7 0 0.0 0.0 0.00 0.00 0.00 96 1020.5
20260506134029 7 0 0.0 0.0 0.00 0.00 0.00 96 1020.5
20260506133531 6 0 0.0 0.0 0.00 0.00 0.00 96 1020.5
20260506133041 6 0 0.0 0.0 0.00 0.00 0.00 96 1020.4
20260506132529 6 0 0.0 0.0 0.00 0.00 0.00 96 1020.3
20260506132032 6 0 0.0 0.0 0.00 0.00 0.00 96 1020.3
20260506131558 6 0 0.0 0.0 0.00 0.00 0.00 96 1020.2
20260506131030 6 0 0.0 0.0 0.00 0.00 0.00 96 1020.4
20260506130532 6 0 0.0 0.0 0.00 0.00 0.00 96 1020.4
20260506130040 6 0 0.0 0.0 0.00 0.00 0.00 96 1020.3
20260506125526 5 0 0.0 0.0 0.00 0.00 0.00 96 1020.3
20260506125028 5 0 0.0 0.0 0.00 0.00 0.00 96 1020.3
20260506124542 5 0 0.0 0.0 0.00 0.00 0.00 96 1020.3
20260506124028 5 0 0.0 0.0 0.00 0.00 0.00 96 1020.2
20260506123534 5 0 0.0 0.0 0.00 0.00 0.00 95 1020.2
20260506123044 5 0 0.0 0.0 0.00 0.00 0.00 95 1020.2
20260506122529 5 0 0.0 0.0 0.00 0.00 0.00 96 1020.1
20260506122030 5 0 0.0 0.0 0.00 0.00 0.00 96 1020.2
20260506121548 5 0 0.0 0.0 0.00 0.00 0.00 95 1020.0
20260506121026 5 0 0.0 0.0 0.00 0.00 0.00 95 1020.0
20260506120532 5 0 0.0 0.0 0.00 0.00 0.00 95 1019.9
20260506120053 5 0 0.0 0.0 0.00 0.00 0.00 95 1019.8
20260506115531 5 0 0.0 0.0 0.00 0.00 0.00 95 1019.7
20260506115028 5 0 0.0 0.0 0.00 0.00 0.00 95 1019.7
20260506114546 5 0 0.0 0.0 0.00 0.00 0.00 95 1019.7
20260506114031 5 0 0.0 0.0 0.00 0.00 0.00 95 1019.8
20260506113529 5 0 0.0 0.0 0.00 0.00 0.00 95 1019.7
20260506113044 5 0 0.0 0.0 0.00 0.00 0.00 95 1019.7
20260506112529 5 0 0.0 0.0 0.00 0.00 0.00 95 1019.7
20260506112029 5 0 0.0 0.0 0.00 0.00 0.00 95 1019.8
20260506111538 5 0 0.0 0.0 0.00 0.00 0.00 95 1019.8
20260506111033 5 0 0.0 0.0 0.00 0.00 0.00 95 1019.7
20260506110530 6 0 0.0 0.0 0.00 0.00 0.00 95 1019.7
20260506110041 6 0 0.0 0.0 0.00 0.00 0.00 95 1019.7
20260506105526 6 0 0.0 0.0 0.00 0.00 0.00 95 1019.7
20260506105030 6 0 0.0 0.0 0.00 0.00 0.00 95 1019.7
20260506104535 6 0 0.0 0.0 0.00 0.00 0.00 95 1019.7
20260506104030 6 0 0.0 0.0 0.00 0.00 0.00 95 1019.6
20260506103527 6 0 0.0 0.0 0.00 0.00 0.00 95 1019.7
20260506103044 6 0 0.0 0.0 0.00 0.00 0.00 95 1019.7
20260506102528 6 0 0.0 0.0 0.00 0.00 0.00 95 1019.8
20260506102026 6 0 0.0 0.0 0.00 0.00 0.00 95 1019.8
20260506101542 6 0 0.0 0.0 0.00 0.00 0.00 95 1019.8
20260506101028 6 0 0.0 0.0 0.00 0.00 0.00 95 1019.7
20260506100534 6 0 0.0 0.0 0.00 0.00 0.00 95 1019.7
20260506100040 6 0 0.0 0.0 0.00 0.00 0.00 95 1019.7
20260506095529 6 0 0.0 0.0 0.00 0.00 0.00 94 1019.6
20260506095026 6 0 0.0 0.0 0.00 0.00 0.00 94 1019.7
20260506094547 7 0 0.0 0.0 0.00 0.00 0.00 95 1019.6
20260506094031 7 0 0.0 0.0 0.00 0.00 0.00 94 1019.6
20260506093527 7 0 0.0 0.0 0.00 0.00 0.00 94 1019.6
20260506093039 7 0 0.0 0.0 0.00 0.00 0.00 94 1019.6
20260506092527 7 0 0.0 0.0 0.00 0.00 0.00 94 1019.6
20260506092029 7 0 0.0 0.0 0.00 0.00 0.00 94 1019.5
20260506091543 7 0 0.0 0.0 0.00 0.00 0.00 94 1019.5
20260506091032 7 0 0.0 0.0 0.00 0.00 0.00 95 1019.5
20260506090528 7 0 0.0 1.6 0.00 0.00 0.00 95 1019.5
20260506090041 7 0 0.0 3.2 0.00 0.00 0.00 95 1019.5
20260506085528 7 0 0.0 3.2 0.00 0.00 0.00 95 1019.4
20260506085029 7 0 0.0 0.0 0.00 0.00 0.00 95 1019.4
20260506084544 7 0 0.0 0.0 0.00 0.00 0.00 95 1019.4
20260506084029 7 0 0.0 0.0 0.00 0.00 0.00 95 1019.4
20260506083528 7 0 0.0 0.0 0.00 0.00 0.00 94 1019.5
20260506083041 7 0 0.0 0.0 0.00 0.00 0.00 94 1019.5
20260506082532 7 0 0.0 0.0 0.00 0.00 0.00 95 1019.5
20260506082032 7 0 0.0 0.0 0.00 0.00 0.00 95 1019.4
20260506081544 7 0 0.0 0.0 0.00 0.00 0.00 94 1019.4
20260506081031 7 0 0.0 0.0 0.00 0.00 0.00 94 1019.5
20260506080529 7 0 0.0 0.0 0.00 0.00 0.00 94 1019.4
20260506073528 7 0 0.0 0.0 0.00 0.00 0.00 93 1019.3
20260506073042 7 0 0.0 0.0 0.00 0.00 0.00 93 1019.2
20260506072531 7 0 0.0 0.0 0.00 0.00 0.00 93 1019.1
20260506072028 7 0 0.0 0.0 0.00 0.00 0.00 92 1019.1
20260506071548 7 0 0.0 0.0 0.00 0.00 0.00 92 1019.0
20260506071029 7 0 0.0 0.0 0.00 0.00 0.00 92 1019.0
20260506070528 7 0 0.0 0.0 0.00 0.00 0.00 92 1018.8
20260506062028 8 0 0.0 0.0 0.00 0.00 0.00 92 1018.5
20260506061539 8 0 0.0 0.0 0.00 0.00 0.00 92 1018.5
20260506061029 8 0 0.0 0.0 0.00 0.00 0.00 93 1018.5
20260506060534 8 0 0.0 0.0 0.00 0.00 0.00 92 1018.4
20260506051030 9 0 0.0 0.0 0.00 0.00 0.00 89 1018.1
20260506050526 10 0 0.0 0.0 0.00 0.00 0.00 89 1018.0
20260506045026 10 0 0.0 0.0 0.00 0.00 0.00 88 1017.9
20260506044543 10 0 0.0 0.0 0.00 0.00 0.00 88 1017.9
20260506044027 10 0 0.0 0.0 0.00 0.00 0.00 87 1017.8
20260506043527 10 0 0.0 0.0 0.00 0.00 0.00 86 1017.7
20260506043043 11 0 0.0 0.0 0.00 0.00 0.00 86 1017.7
20260506042527 11 0 0.0 0.0 0.00 0.00 0.00 85 1017.6
20260506042026 11 0 0.0 0.0 0.00 0.00 0.00 85 1017.5
20260506041548 11 0 0.0 0.0 0.00 0.00 0.00 84 1017.6
20260506041026 11 0 0.0 0.0 0.00 0.00 0.00 84 1017.5
20260506040529 12 0 0.0 0.0 0.00 0.00 0.00 84 1017.5
20260506040044 12 0 0.0 0.0 0.00 0.00 0.00 84 1017.4
20260506035526 12 0 0.0 0.0 0.00 0.00 0.00 83 1017.2
20260506035029 12 0 0.0 0.0 0.00 0.00 0.00 83 1017.2
20260506034539 12 0 0.0 0.0 0.00 0.00 0.00 82 1017.2
20260506034030 12 0 0.0 0.0 0.00 0.00 0.00 82 1017.0
20260506033530 12 0 0.0 0.0 0.00 0.00 0.00 81 1016.8
20260506033040 12 0 0.0 0.0 0.00 0.00 0.00 80 1016.7
20260506032527 13 0 0.0 0.0 0.00 0.00 0.00 79 1016.7
20260506032029 13 0 0.0 0.0 0.00 0.00 0.00 79 1016.5
20260506031549 13 0 0.0 1.6 0.00 0.00 0.00 78 1016.5
20260506031027 13 0 0.0 1.6 0.00 0.00 0.00 77 1016.4
20260506030530 13 0 0.0 1.6 0.00 0.00 0.00 76 1016.2
20260506030041 13 0 0.0 1.6 0.00 0.00 0.00 75 1016.1
20260506025527 14 0 0.0 0.0 0.00 0.00 0.00 75 1016.1
20260506025033 14 0 0.0 1.6 0.00 0.00 0.00 74 1016.0
20260506024556 14 0 0.0 3.2 0.00 0.00 0.00 73 1015.9
20260506024028 15 243 0.0 3.2 0.00 0.00 0.00 73 1016.0
20260506023527 15 232 0.0 3.2 0.00 0.00 0.00 73 1015.9
20260506023047 15 0 0.0 1.6 0.00 0.00 0.00 73 1015.8
20260506022530 15 78 0.0 1.6 0.00 0.00 0.00 73 1015.7
20260506022027 15 0 0.0 6.4 0.00 0.00 0.00 73 1015.7
20260506021538 15 0 0.0 6.4 0.00 0.00 0.00 73 1015.7
20260506021028 15 0 1.6 6.4 0.00 0.00 0.00 72 1015.6
20260506020526 15 142 0.0 3.2 0.00 0.00 0.00 71 1015.6
20260506020044 15 0 0.0 6.4 0.00 0.00 0.00 70 1015.5
20260506015530 16 0 0.0 6.4 0.00 0.00 0.00 70 1015.5
20260506015027 16 242 0.0 6.4 0.00 0.00 0.00 68 1015.5
20260506014544 16 0 0.0 8.0 0.00 0.00 0.00 67 1015.5
20260506014032 16 239 1.6 8.0 0.00 0.00 0.00 67 1015.5
20260506013531 17 0 0.0 6.4 0.00 0.00 0.00 66 1015.5
20260506013043 17 0 0.0 4.8 0.00 0.00 0.00 66 1015.5
20260506012529 17 0 0.0 4.8 0.00 0.00 0.00 65 1015.4
20260506012030 17 238 0.0 3.2 0.00 0.00 0.00 64 1015.4
20260506011537 17 0 0.0 8.0 0.00 0.00 0.00 64 1015.5
20260506011031 17 0 0.0 8.0 0.00 0.00 0.00 64 1015.6
20260506010529 17 0 1.6 8.0 0.00 0.00 0.00 63 1015.6
20260506010036 17 112 3.2 8.0 0.00 0.00 0.00 62 1015.4
20260506005529 17 259 3.2 8.0 0.00 0.00 0.00 60 1015.6
20260506005028 17 165 1.6 9.7 0.00 0.00 0.00 60 1015.5
20260506004541 17 0 1.6 9.7 0.00 0.00 0.00 60 1015.4
20260506004028 18 141 1.6 9.7 0.00 0.00 0.00 59 1015.4
20260506003530 18 68 3.2 8.0 0.00 0.00 0.00 58 1015.3
20260506003042 18 195 1.6 8.0 0.00 0.00 0.00 59 1015.4
20260506002529 18 0 1.6 8.0 0.00 0.00 0.00 59 1015.4
20260506002026 18 123 3.2 8.0 0.00 0.00 0.00 58 1015.3
20260506001546 18 238 1.6 9.7 0.00 0.00 0.00 59 1015.3
20260506001029 19 157 0.0 9.7 0.00 0.00 0.00 59 1015.3
20260506000530 19 195 1.6 11.3 0.00 0.00 0.00 59 1015.2
20260506000043 19 229 3.2 11.3 0.00 0.00 0.00 59 1015.2
20260505235530 19 225 3.2 9.7 0.00 0.00 0.00 58 1015.2
20260505235026 20 293 1.6 9.7 0.00 0.00 0.00 58 1015.0
20260505234551 20 145 1.6 9.7 0.00 0.00 0.00 57 1015.1
20260505234026 20 0 3.2 9.7 0.00 0.00 0.00 56 1015.1
20260505233528 20 169 1.6 9.7 0.00 0.00 0.00 57 1015.2
20260505233042 20 169 1.6 8.0 0.00 0.00 0.00 57 1015.2
20260505232528 20 201 0.0 8.0 0.00 0.00 0.00 54 1015.3
20260505232030 20 143 3.2 8.0 0.00 0.00 0.00 55 1015.3
20260505231557 20 115 1.6 11.3 0.00 0.00 0.00 54 1015.3
20260505231026 20 154 1.6 11.3 0.00 0.00 0.00 54 1015.3
20260505230529 20 193 3.2 9.7 0.00 0.00 0.00 54 1015.2
20260505230055 20 246 0.0 8.0 0.00 0.00 0.00 55 1015.4
20260505225531 20 232 3.2 8.0 0.00 0.00 0.00 54 1015.4
20260505225027 20 172 1.6 6.4 0.00 0.00 0.00 54 1015.4
20260505224552 20 283 1.6 6.4 0.00 0.00 0.00 54 1015.5
20260505224027 20 311 1.6 6.4 0.00 0.00 0.00 54 1015.6
20260505223532 20 198 3.2 6.4 0.00 0.00 0.00 53 1015.6
20260505223039 20 270 3.2 6.4 0.00 0.00 0.00 54 1015.5
20260505222527 21 0 3.2 6.4 0.00 0.00 0.00 53 1015.6
20260505222030 21 0 0.0 6.4 0.00 0.00 0.00 54 1015.7
20260505221542 20 85 1.6 6.4 0.00 0.00 0.00 54 1015.7
20260505221029 20 148 1.6 6.4 0.00 0.00 0.00 53 1015.7
20260505220526 20 0 0.0 6.4 0.00 0.00 0.00 53 1015.8
20260505220044 20 120 0.0 8.0 0.00 0.00 0.00 53 1015.9
20260505215529 21 22 3.2 9.7 0.00 0.00 0.00 53 1015.9
20260505215029 21 248 1.6 9.7 0.00 0.00 0.00 52 1015.9
20260505214541 21 165 1.6 8.0 0.00 0.00 0.00 52 1016.0
20260505214028 21 224 1.6 6.4 0.00 0.00 0.00 53 1016.1
20260505213529 20 0 1.6 8.0 0.00 0.00 0.00 56 1016.1